This is the latest recevied weather packets stored in our database for station/object KD7JB. If no packets are shown the sender has not sent any weather packets the latest 10 day(s).
| Time | Temp. | Humidity | Pressure | Rain* | Wind** | Luminosity | Snow |
|---|---|---|---|---|---|---|---|
| 1777942966 | 21.11° C | 33% | 1171.3 hPa | 0 mm | - | 177 W/m² | - |
| 1777942663 | 21.67° C | 33% | 1171.2 hPa | 0 mm | - | 68 W/m² | - |
| 1777942360 | 21.67° C | 33% | 1171.1 hPa | 0 mm | - | 236 W/m² | - |
| 1777942057 | 21.11° C | 36% | 1171.1 hPa | 0 mm | - | 250 W/m² | - |
| 1777941753 | 21.67° C | 34% | 1171.3 hPa | 0 mm | - | 81 W/m² | - |
| 1777941451 | 22.22° C | 34% | 1171.2 hPa | 0 mm | - | 268 W/m² | - |
| 1777941149 | 21.67° C | 34% | 1171.2 hPa | 0 mm | - | 279 W/m² | - |
| 1777940844 | 20.56° C | 36% | 1171.2 hPa | 0 mm | - | 187 W/m² | - |
| 1777940542 | 20.56° C | 38% | 1171.1 hPa | 0 mm | - | 69 W/m² | - |
| 1777940239 | 20.56° C | 37% | 1171.3 hPa | 0 mm | - | 67 W/m² | - |
| 1777939937 | 20.56° C | 38% | 1171.4 hPa | 0 mm | - | 76 W/m² | - |
| 1777939634 | 20.56° C | 39% | 1171 hPa | 0 mm | - | 99 W/m² | - |
| 1777939332 | 20.56° C | 39% | 1171.2 hPa | 0 mm | - | 78 W/m² | - |
| 1777939028 | 21.11° C | 37% | 1171 hPa | 0 mm | - | 81 W/m² | - |
| 1777938724 | 21.11° C | 38% | 1171.1 hPa | 0 mm | - | 97 W/m² | - |
| 1777938421 | 22.22° C | 36% | 1171.3 hPa | 0 mm | - | 126 W/m² | - |
| 1777938119 | 21.67° C | 37% | 1171.1 hPa | 0 mm | - | 481 W/m² | - |
| 1777937814 | 21.67° C | 35% | 1171 hPa | 0 mm | - | 111 W/m² | - |
| 1777937510 | 21.67° C | 35% | 1171.4 hPa | 0 mm | - | 125 W/m² | - |
| 1777937208 | 21.67° C | 34% | 1171.3 hPa | 0 mm | - | 107 W/m² | - |
| 1777936905 | 22.22° C | 34% | 1171.3 hPa | 0 mm | - | 124 W/m² | - |
| 1777936602 | 22.78° C | 36% | 1171.2 hPa | 0 mm | - | 557 W/m² | - |
| 1777936298 | 21.67° C | 36% | 1171.2 hPa | 0 mm | - | 540 W/m² | - |
| 1777935994 | 22.22° C | 34% | 1171.3 hPa | 0 mm | - | 557 W/m² | - |
| 1777935693 | 21.67° C | 34% | 1171.4 hPa | 0 mm | - | 170 W/m² | - |
* Rain latest hour (hover to see other rain measurements)
** Current wind speed in m/s (hover to see current wind gust speed)